Time,TemperatureF,DewpointF,PressureIn,WindDirection,WindDirectionDegrees,WindSpeedMPH,WindSpeedGustMPH,Humidity,HourlyPrecipIn,Conditions,Clouds,dailyrainin,SoftwareType,DateUTC
2013-03-07 08:52:00,36.6,33.4,29.72,SW,225,4.6,4.6,88,0.10,,---,44.43,VWS V14.01,2013-03-07 13:52:00,
2013-03-07 08:57:00,40.2,31.9,29.95,South,180,4.6,4.6,72,0.30,,---,44.73,VWS V14.01,2013-03-07 13:57:00,
2013-03-07 09:02:00,40.8,32.1,29.95,SE,135,9.1,9.1,71,0.30,,---,44.73,VWS V14.01,2013-03-07 14:02:00,
2013-03-07 09:07:00,41.1,32.4,29.95,SSE,158,7.8,7.8,71,0.30,,---,44.73,VWS V14.01,2013-03-07 14:07:00,
2013-03-07 09:12:00,41.7,33.0,29.96,WSW,248,1.7,1.7,71,0.30,,---,44.73,VWS V14.01,2013-03-07 14:12:00,
2013-03-07 09:18:00,42.0,32.9,29.96,NE,45,0.0,0.0,70,0.30,,---,44.73,VWS V14.01,2013-03-07 14:18:00,
2013-03-07 09:22:00,42.6,33.5,29.96,ESE,112,6.7,6.7,70,0.30,,---,44.73,VWS V14.01,2013-03-07 14:22:00,
2013-03-07 09:28:00,42.9,33.4,29.96,SE,135,6.2,6.2,69,0.30,,---,44.73,VWS V14.01,2013-03-07 14:28:00,
2013-03-07 09:33:00,42.9,33.1,29.96,SSE,158,7.8,7.8,68,0.30,,---,44.73,VWS V14.01,2013-03-07 14:33:00,
2013-03-07 09:38:00,42.9,32.7,29.96,East,90,9.1,9.1,67,0.30,,---,44.73,VWS V14.01,2013-03-07 14:38:00,
2013-03-07 09:43:00,42.9,32.7,29.97,SSE,158,6.2,6.2,67,0.30,,---,44.73,VWS V14.01,2013-03-07 14:43:00,
2013-03-07 09:48:00,43.3,33.5,29.96,SSE,158,4.4,4.4,68,0.30,,---,44.73,VWS V14.01,2013-03-07 14:48:00,
2013-03-07 09:53:00,43.5,33.3,29.97,SSW,202,3.3,3.3,67,0.30,,---,44.73,VWS V14.01,2013-03-07 14:53:00,
2013-03-07 09:58:00,43.5,33.3,29.97,SE,135,1.5,1.5,67,0.00,,---,44.73,VWS V14.01,2013-03-07 14:58:00,
2013-03-07 10:03:00,43.5,32.2,29.97,SSE,158,4.0,4.0,64,0.00,,---,44.73,VWS V14.01,2013-03-07 15:03:00,
2013-03-07 10:08:00,43.5,32.2,29.97,SE,135,5.3,5.3,64,0.00,,---,44.73,VWS V14.01,2013-03-07 15:08:00,
2013-03-07 10:13:00,43.5,32.2,29.97,SSW,202,4.9,4.9,64,0.00,,---,44.73,VWS V14.01,2013-03-07 15:13:00,
2013-03-07 10:18:00,43.7,32.7,29.98,SSE,158,0.0,0.0,65,0.00,,---,44.73,VWS V14.01,2013-03-07 15:18:00,
2013-03-07 10:23:00,44.0,32.6,29.98,South,180,6.7,6.7,64,0.00,,---,44.73,VWS V14.01,2013-03-07 15:23:00,
2013-03-07 10:28:00,44.0,32.2,29.98,South,180,6.9,6.9,63,0.00,,---,44.73,VWS V14.01,2013-03-07 15:28:00,
2013-03-07 10:33:00,43.7,32.0,29.98,SE,135,0.8,0.8,63,0.00,,---,44.73,VWS V14.01,2013-03-07 15:33:00,
2013-03-07 10:38:00,43.8,32.4,29.98,SE,135,2.9,2.9,64,0.00,,---,44.73,VWS V14.01,2013-03-07 15:38:00,
2013-03-07 10:43:00,44.2,33.2,29.98,WNW,292,3.5,3.5,65,0.00,,---,44.73,VWS V14.01,2013-03-07 15:43:00,
2013-03-07 10:48:00,44.0,32.2,29.98,SSW,202,4.9,4.9,63,0.00,,---,44.73,VWS V14.01,2013-03-07 15:48:00,
2013-03-07 10:53:00,43.8,32.0,29.98,SE,135,6.0,6.0,63,0.00,,---,44.73,VWS V14.01,2013-03-07 15:53:00,
2013-03-07 10:58:00,44.2,32.8,29.98,SSE,158,7.1,7.1,64,0.00,,---,44.73,VWS V14.01,2013-03-07 15:58:00,
2013-03-07 11:03:00,44.4,33.0,29.98,SSE,158,0.0,0.0,64,0.00,,---,44.73,VWS V14.01,2013-03-07 16:03:00,
2013-03-07 11:08:00,44.4,32.2,29.98,SW,225,7.6,7.6,62,0.00,,---,44.73,VWS V14.01,2013-03-07 16:08:00,
2013-03-07 11:13:00,44.4,32.2,29.98,SSE,158,7.6,7.6,62,0.00,,---,44.73,VWS V14.01,2013-03-07 16:13:00,
2013-03-07 11:18:00,44.9,32.7,29.98,East,90,4.0,4.0,62,0.00,,---,44.73,VWS V14.01,2013-03-07 16:18:00,
2013-03-07 11:23:00,45.5,33.7,29.98,ESE,112,7.3,7.3,63,0.00,,---,44.73,VWS V14.01,2013-03-07 16:23:00,
2013-03-07 11:28:00,46.2,34.3,29.98,South,180,4.6,6.4,63,0.00,,---,44.73,VWS V14.01,2013-03-07 16:28:00,
2013-03-07 11:33:00,46.2,33.1,29.98,SSW,202,0.0,0.0,60,0.00,,---,44.73,VWS V14.01,2013-03-07 16:33:00,
2013-03-07 11:38:00,46.2,33.1,29.98,East,90,2.9,2.9,60,0.00,,---,44.73,VWS V14.01,2013-03-07 16:38:00,
2013-03-07 11:43:00,46.5,34.2,29.98,East,90,4.9,4.9,62,0.00,,---,44.73,VWS V14.01,2013-03-07 16:43:00,
2013-03-07 11:48:00,47.1,34.8,29.98,SSE,158,5.5,5.5,62,0.00,,---,44.73,VWS V14.01,2013-03-07 16:48:00,
2013-03-07 11:53:00,47.3,34.1,29.98,South,180,5.1,5.1,60,0.00,,---,44.73,VWS V14.01,2013-03-07 16:53:00,
2013-03-07 11:58:00,47.1,33.5,29.98,SSE,158,1.1,1.1,59,0.00,,---,44.73,VWS V14.01,2013-03-07 16:58:00,
2013-03-07 12:02:00,47.8,34.6,29.98,South,180,7.3,7.3,60,0.00,,---,44.73,VWS V14.01,2013-03-07 17:02:00,
2013-03-07 16:42:00,47.8,34.6,29.98,South,180,7.3,7.3,60,0.00,,---,44.73,VWS V14.01,2013-03-07 21:42:00,
2013-03-07 16:47:00,47.8,31.0,29.98,SE,135,6.4,6.4,52,0.00,,---,44.73,VWS V14.01,2013-03-07 21:47:00,
2013-03-07 16:52:00,47.4,31.1,29.99,SW,225,2.0,2.0,53,0.00,,---,44.73,VWS V14.01,2013-03-07 21:52:00,
2013-03-07 16:57:00,47.4,31.1,29.99,WSW,248,0.0,0.0,53,0.00,,---,44.73,VWS V14.01,2013-03-07 21:57:00,
2013-03-07 17:02:00,47.4,31.1,29.98,SE,135,6.7,6.7,53,0.00,,---,44.73,VWS V14.01,2013-03-07 22:02:00,
2013-03-07 17:07:00,47.3,31.5,29.98,SSW,202,0.0,0.0,54,0.00,,---,44.73,VWS V14.01,2013-03-07 22:07:00,
2013-03-07 17:12:00,47.1,31.3,29.99,SE,135,4.2,4.2,54,0.00,,---,44.73,VWS V14.01,2013-03-07 22:12:00,
2013-03-07 17:17:00,46.5,31.2,29.99,WSW,248,7.3,7.3,55,0.00,,---,44.73,VWS V14.01,2013-03-07 22:17:00,
2013-03-07 17:22:00,46.2,31.4,30.00,NE,45,0.0,0.0,56,0.00,,---,44.73,VWS V14.01,2013-03-07 22:22:00,
2013-03-07 17:27:00,45.8,31.5,29.99,SW,225,0.6,0.6,57,0.00,,---,44.73,VWS V14.01,2013-03-07 22:27:00,
2013-03-07 17:32:00,45.6,31.3,30.00,South,180,5.1,5.1,57,0.00,,---,44.73,VWS V14.01,2013-03-07 22:32:00,
2013-03-07 17:37:00,45.5,31.6,30.00,South,180,5.5,5.5,58,0.00,,---,44.73,VWS V14.01,2013-03-07 22:37:00,
2013-03-07 17:42:00,45.1,31.2,30.00,SE,135,0.0,0.0,58,0.00,,---,44.73,VWS V14.01,2013-03-07 22:42:00,
2013-03-07 17:47:00,44.9,31.5,30.00,WSW,248,3.5,3.5,59,0.00,,---,44.73,VWS V14.01,2013-03-07 22:47:00,
2013-03-07 17:52:00,44.6,31.6,30.01,WSW,248,0.0,0.0,60,0.00,,---,44.73,VWS V14.01,2013-03-07 22:52:00,
2013-03-07 17:58:00,44.4,31.4,30.00,SW,225,6.4,6.4,60,0.00,,---,44.73,VWS V14.01,2013-03-07 22:58:00,
2013-03-07 18:03:00,44.0,31.0,30.01,South,180,6.4,6.4,60,0.00,,---,44.73,VWS V14.01,2013-03-07 23:03:00,
2013-03-07 18:08:00,43.8,31.2,30.01,ESE,112,0.0,0.0,61,0.00,,---,44.73,VWS V14.01,2013-03-07 23:08:00,
2013-03-07 18:13:00,43.8,31.2,30.01,SE,135,3.5,3.5,61,0.00,,---,44.73,VWS V14.01,2013-03-07 23:13:00,
2013-03-07 18:18:00,43.7,31.1,30.01,South,180,1.7,1.7,61,0.00,,---,44.73,VWS V14.01,2013-03-07 23:18:00,
2013-03-07 18:24:00,43.5,31.0,30.02,SE,135,5.8,5.8,61,0.00,,---,44.73,VWS V14.01,2013-03-07 23:24:00,
2013-03-07 18:29:00,43.3,31.2,30.02,East,90,0.0,0.0,62,0.00,,---,44.73,VWS V14.01,2013-03-07 23:29:00,
2013-03-07 18:34:00,43.3,31.6,30.02,SE,135,1.5,1.5,63,0.00,,---,44.73,VWS V14.01,2013-03-07 23:34:00,
2013-03-07 18:39:00,43.1,31.4,30.02,SSE,158,4.2,4.2,63,0.00,,---,44.73,VWS V14.01,2013-03-07 23:39:00,
2013-03-07 18:44:00,42.9,31.2,30.02,ESE,112,1.7,1.7,63,0.00,,---,44.73,VWS V14.01,2013-03-07 23:44:00,
2013-03-07 18:49:00,42.9,31.2,30.03,SE,135,1.5,1.5,63,0.00,,---,44.73,VWS V14.01,2013-03-07 23:49:00,
2013-03-07 18:54:00,42.6,31.3,30.03,South,180,0.0,0.0,64,0.00,,---,44.73,VWS V14.01,2013-03-07 23:54:00,
2013-03-07 18:59:00,42.6,31.3,30.03,WSW,248,4.2,4.2,64,0.00,,---,44.73,VWS V14.01,2013-03-07 23:59:00,
2013-03-07 19:04:00,42.4,31.5,30.03,SSE,158,0.0,0.0,65,0.00,,---,44.73,VWS V14.01,2013-03-08 00:04:00,
2013-03-07 19:05:00,42.4,31.5,30.03,SSE,158,0.0,0.0,65,0.00,,---,44.73,VWS V14.01,2013-03-08 00:05:00,